Time,TemperatureF,DewpointF,PressureIn,WindDirection,WindDirectionDegrees,WindSpeedMPH,WindSpeedGustMPH,Humidity,HourlyPrecipIn,Conditions,Clouds,dailyrainin,SolarRadiationWatts/m^2,SoftwareType,DateUTC
2013-05-26 00:12:00,62.0,61.0,-100.00,SSW,196,0.0,2.0,98,0.00,,,0.00,0.000000,,2013-05-26 05:12:00,
2013-05-26 00:22:00,62.0,61.0,-100.00,SSW,196,0.0,2.0,98,0.00,,,0.00,0.000000,,2013-05-26 05:22:00,
2013-05-26 00:32:00,62.0,61.0,-100.00,SSW,196,0.0,2.0,98,0.00,,,0.00,0.000000,,2013-05-26 05:32:00,
2013-05-26 00:42:00,62.0,61.0,-100.00,SSW,196,0.0,2.0,98,0.00,,,0.00,0.000000,,2013-05-26 05:42:00,
2013-05-26 00:51:00,61.0,61.0,-100.00,SW,232,0.0,2.0,100,0.00,,,0.00,0.000000,,2013-05-26 05:51:00,
2013-05-26 01:12:00,61.0,61.0,-100.00,SW,232,0.0,2.0,100,0.00,,,0.00,0.000000,,2013-05-26 06:12:00,
2013-05-26 01:22:00,61.0,61.0,-100.00,SW,232,0.0,2.0,100,0.00,,,0.00,0.000000,,2013-05-26 06:22:00,
2013-05-26 01:32:00,61.0,61.0,-100.00,SW,232,0.0,2.0,100,0.00,,,0.00,0.000000,,2013-05-26 06:32:00,
2013-05-26 01:42:00,61.0,61.0,-100.00,SW,232,0.0,2.0,100,0.00,,,0.00,0.000000,,2013-05-26 06:42:00,
2013-05-26 01:51:00,60.0,60.0,-100.00,NE,43,0.0,2.0,100,0.00,,,0.00,0.000000,,2013-05-26 06:51:00,
2013-05-26 02:11:00,60.0,60.0,-100.00,NE,43,0.0,2.0,100,0.00,,,0.00,0.000000,,2013-05-26 07:11:00,
2013-05-26 02:22:00,60.0,60.0,-100.00,NE,43,0.0,2.0,100,0.00,,,0.00,0.000000,,2013-05-26 07:22:00,
2013-05-26 02:32:00,60.0,60.0,-100.00,NE,43,0.0,2.0,100,0.00,,,0.00,0.000000,,2013-05-26 07:32:00,
2013-05-26 02:42:00,60.0,60.0,-100.00,NE,43,0.0,2.0,100,0.00,,,0.00,0.000000,,2013-05-26 07:42:00,
2013-05-26 02:51:00,59.0,59.0,-100.00,WNW,295,0.0,2.0,100,0.00,,,0.00,0.000000,,2013-05-26 07:51:00,
2013-05-26 03:12:00,59.0,59.0,-100.00,WNW,295,0.0,2.0,100,0.00,,,0.00,0.000000,,2013-05-26 08:12:00,
2013-05-26 03:21:00,59.0,59.0,-100.00,WNW,295,0.0,2.0,100,0.00,,,0.00,0.000000,,2013-05-26 08:21:00,
2013-05-26 03:32:00,59.0,59.0,-100.00,WNW,295,0.0,2.0,100,0.00,,,0.00,0.000000,,2013-05-26 08:32:00,
2013-05-26 03:42:00,59.0,59.0,-100.00,WNW,295,0.0,2.0,100,0.00,,,0.00,0.000000,,2013-05-26 08:42:00,
2013-05-26 03:51:00,58.0,58.0,-100.00,NW,305,0.0,0.0,100,0.00,,,0.00,0.000000,,2013-05-26 08:51:00,
2013-05-26 04:11:00,58.0,58.0,-100.00,NW,305,0.0,0.0,100,0.00,,,0.00,0.000000,,2013-05-26 09:11:00,
2013-05-26 04:21:00,58.0,58.0,-100.00,NW,305,0.0,0.0,100,0.00,,,0.00,0.000000,,2013-05-26 09:21:00,
2013-05-26 04:33:00,58.0,58.0,-100.00,NW,305,0.0,0.0,100,0.00,,,0.00,0.000000,,2013-05-26 09:33:00,
2013-05-26 04:42:00,58.0,58.0,-100.00,NW,305,0.0,0.0,100,0.00,,,0.00,0.000000,,2013-05-26 09:42:00,
2013-05-26 04:51:00,59.0,59.0,-100.00,NW,322,0.0,2.0,100,0.00,,,0.00,0.000000,,2013-05-26 09:51:00,
2013-05-26 05:12:00,59.0,59.0,-100.00,NW,322,0.0,2.0,100,0.00,,,0.00,0.000000,,2013-05-26 10:12:00,
2013-05-26 05:23:00,59.0,59.0,-100.00,NW,322,0.0,2.0,100,0.00,,,0.00,0.000000,,2013-05-26 10:23:00,
2013-05-26 05:33:00,59.0,59.0,-100.00,NW,322,0.0,2.0,100,0.00,,,0.00,0.000000,,2013-05-26 10:33:00,
2013-05-26 05:42:00,59.0,59.0,-100.00,NW,322,0.0,2.0,100,0.00,,,0.00,0.000000,,2013-05-26 10:42:00,
2013-05-26 05:51:00,60.0,60.0,-100.00,NW,324,0.0,2.0,100,0.00,,,0.00,0.000000,,2013-05-26 10:51:00,
2013-05-26 06:11:00,60.0,60.0,-100.00,NW,324,0.0,2.0,100,0.00,,,0.00,0.000000,,2013-05-26 11:11:00,
2013-05-26 06:22:00,60.0,60.0,-100.00,NW,324,0.0,2.0,100,0.00,,,0.00,0.000000,,2013-05-26 11:22:00,
2013-05-26 06:32:00,60.0,60.0,-100.00,NW,324,0.0,2.0,100,0.00,,,0.00,0.000000,,2013-05-26 11:32:00,
2013-05-26 06:42:00,60.0,60.0,-100.00,NW,324,0.0,2.0,100,0.00,,,0.00,0.000000,,2013-05-26 11:42:00,
2013-05-26 06:51:00,61.0,61.0,-100.00,WNW,299,0.0,2.0,100,0.00,,,0.00,26.000000,,2013-05-26 11:51:00,
2013-05-26 07:12:00,61.0,61.0,-100.00,WNW,299,0.0,2.0,100,0.00,,,0.00,26.000000,,2013-05-26 12:12:00,
2013-05-26 07:21:00,61.0,61.0,-100.00,WNW,299,0.0,2.0,100,0.00,,,0.00,26.000000,,2013-05-26 12:21:00,
2013-05-26 07:32:00,61.0,61.0,-100.00,WNW,299,0.0,2.0,100,0.00,,,0.00,26.000000,,2013-05-26 12:32:00,
2013-05-26 07:42:00,61.0,61.0,-100.00,WNW,299,0.0,2.0,100,0.00,,,0.00,26.000000,,2013-05-26 12:42:00,
2013-05-26 07:51:00,73.0,71.0,-100.00,ENE,69,1.0,3.0,92,0.00,,,0.00,188.000000,,2013-05-26 12:51:00,
2013-05-26 08:11:00,73.0,71.0,-100.00,ENE,69,1.0,3.0,92,0.00,,,0.00,188.000000,,2013-05-26 13:11:00,
2013-05-26 08:21:00,73.0,71.0,-100.00,ENE,69,1.0,3.0,92,0.00,,,0.00,188.000000,,2013-05-26 13:21:00,
2013-05-26 08:32:00,73.0,71.0,-100.00,ENE,69,1.0,3.0,92,0.00,,,0.00,188.000000,,2013-05-26 13:32:00,
2013-05-26 08:42:00,73.0,71.0,-100.00,ENE,69,1.0,3.0,92,0.00,,,0.00,188.000000,,2013-05-26 13:42:00,
2013-05-26 08:51:00,81.0,66.0,-100.00,ENE,71,3.0,6.0,60,0.00,,,0.00,420.000000,,2013-05-26 13:51:00,
2013-05-26 09:11:00,81.0,66.0,-100.00,ENE,71,3.0,6.0,60,0.00,,,0.00,420.000000,,2013-05-26 14:11:00,
2013-05-26 09:21:00,81.0,66.0,-100.00,ENE,71,3.0,6.0,60,0.00,,,0.00,420.000000,,2013-05-26 14:21:00,
2013-05-26 09:32:00,81.0,66.0,-100.00,ENE,71,3.0,6.0,60,0.00,,,0.00,420.000000,,2013-05-26 14:32:00,
2013-05-26 09:42:00,81.0,66.0,-100.00,ENE,71,3.0,6.0,60,0.00,,,0.00,420.000000,,2013-05-26 14:42:00,
2013-05-26 09:51:00,81.0,62.0,-100.00,ESE,107,5.0,9.0,52,0.00,,,0.00,619.000000,,2013-05-26 14:51:00,
2013-05-26 10:12:00,81.0,62.0,-100.00,ESE,107,5.0,9.0,52,0.00,,,0.00,619.000000,,2013-05-26 15:12:00,
2013-05-26 10:22:00,81.0,62.0,-100.00,ESE,107,5.0,9.0,52,0.00,,,0.00,619.000000,,2013-05-26 15:22:00,
2013-05-26 10:33:00,81.0,62.0,-100.00,ESE,107,5.0,9.0,52,0.00,,,0.00,619.000000,,2013-05-26 15:33:00,
2013-05-26 10:43:00,81.0,62.0,-100.00,ESE,107,5.0,9.0,52,0.00,,,0.00,619.000000,,2013-05-26 15:43:00,
2013-05-26 10:51:00,83.0,61.0,-100.00,ESE,115,5.0,10.0,47,0.00,,,0.00,736.000000,,2013-05-26 15:51:00,
2013-05-26 11:12:00,83.0,61.0,-100.00,ESE,115,5.0,10.0,47,0.00,,,0.00,736.000000,,2013-05-26 16:12:00,
2013-05-26 11:23:00,83.0,61.0,-100.00,ESE,115,5.0,10.0,47,0.00,,,0.00,736.000000,,2013-05-26 16:23:00,
2013-05-26 11:33:00,83.0,61.0,-100.00,ESE,115,5.0,10.0,47,0.00,,,0.00,736.000000,,2013-05-26 16:33:00,
2013-05-26 11:42:00,83.0,61.0,-100.00,ESE,115,5.0,10.0,47,0.00,,,0.00,736.000000,,2013-05-26 16:42:00,
2013-05-26 11:51:00,84.0,56.0,-100.00,SE,131,6.0,11.0,38,0.00,,,0.00,835.000000,,2013-05-26 16:51:00,
2013-05-26 12:11:00,84.0,56.0,-100.00,SE,131,6.0,11.0,38,0.00,,,0.00,835.000000,,2013-05-26 17:11:00,
2013-05-26 12:22:00,84.0,56.0,-100.00,SE,131,6.0,11.0,38,0.00,,,0.00,835.000000,,2013-05-26 17:22:00,
2013-05-26 12:32:00,84.0,56.0,-100.00,SE,131,6.0,11.0,38,0.00,,,0.00,835.000000,,2013-05-26 17:32:00,
2013-05-26 12:42:00,84.0,56.0,-100.00,SE,131,6.0,11.0,38,0.00,,,0.00,835.000000,,2013-05-26 17:42:00,
2013-05-26 12:51:00,84.0,59.0,-100.00,SE,144,6.0,13.0,43,0.00,,,0.00,980.000000,,2013-05-26 17:51:00,
2013-05-26 13:12:00,84.0,59.0,-100.00,SE,144,6.0,13.0,43,0.00,,,0.00,980.000000,,2013-05-26 18:12:00,
2013-05-26 13:21:00,84.0,59.0,-100.00,SE,144,6.0,13.0,43,0.00,,,0.00,980.000000,,2013-05-26 18:21:00,
2013-05-26 13:32:00,84.0,59.0,-100.00,SE,144,6.0,13.0,43,0.00,,,0.00,980.000000,,2013-05-26 18:32:00,
2013-05-26 13:42:00,84.0,59.0,-100.00,SE,144,6.0,13.0,43,0.00,,,0.00,980.000000,,2013-05-26 18:42:00,
2013-05-26 13:51:00,83.0,57.0,-100.00,SE,140,8.0,15.0,41,0.00,,,0.00,983.000000,,2013-05-26 18:51:00,
2013-05-26 14:11:00,83.0,57.0,-100.00,SE,140,8.0,15.0,41,0.00,,,0.00,983.000000,,2013-05-26 19:11:00,
2013-05-26 14:22:00,83.0,57.0,-100.00,SE,140,8.0,15.0,41,0.00,,,0.00,983.000000,,2013-05-26 19:22:00,
2013-05-26 14:32:00,83.0,57.0,-100.00,SE,140,8.0,15.0,41,0.00,,,0.00,983.000000,,2013-05-26 19:32:00,
2013-05-26 14:42:00,83.0,57.0,-100.00,SE,140,8.0,15.0,41,0.00,,,0.00,983.000000,,2013-05-26 19:42:00,
2013-05-26 14:51:00,83.0,58.0,-100.00,South,172,8.0,15.0,43,0.00,,,0.00,736.000000,,2013-05-26 19:51:00,
2013-05-26 15:11:00,83.0,58.0,-100.00,South,172,8.0,15.0,43,0.00,,,0.00,736.000000,,2013-05-26 20:11:00,
2013-05-26 15:22:00,83.0,58.0,-100.00,South,172,8.0,15.0,43,0.00,,,0.00,736.000000,,2013-05-26 20:22:00,
2013-05-26 15:32:00,83.0,58.0,-100.00,South,172,8.0,15.0,43,0.00,,,0.00,736.000000,,2013-05-26 20:32:00,
2013-05-26 15:42:00,83.0,58.0,-100.00,South,172,8.0,15.0,43,0.00,,,0.00,736.000000,,2013-05-26 20:42:00,
2013-05-26 15:51:00,83.0,61.0,-100.00,SSE,151,6.0,14.0,48,0.00,,,0.00,726.000000,,2013-05-26 20:51:00,
2013-05-26 16:11:00,83.0,61.0,-100.00,SSE,151,6.0,14.0,48,0.00,,,0.00,726.000000,,2013-05-26 21:11:00,
2013-05-26 16:22:00,83.0,61.0,-100.00,SSE,151,6.0,14.0,48,0.00,,,0.00,726.000000,,2013-05-26 21:22:00,
2013-05-26 16:33:00,83.0,61.0,-100.00,SSE,151,6.0,14.0,48,0.00,,,0.00,726.000000,,2013-05-26 21:33:00,
2013-05-26 16:43:00,83.0,61.0,-100.00,SSE,151,6.0,14.0,48,0.00,,,0.00,726.000000,,2013-05-26 21:43:00,
2013-05-26 16:51:00,82.0,62.0,-100.00,South,172,6.0,15.0,51,0.00,,,0.00,522.000000,,2013-05-26 21:51:00,
2013-05-26 17:12:00,82.0,62.0,-100.00,South,172,6.0,15.0,51,0.00,,,0.00,522.000000,,2013-05-26 22:12:00,
2013-05-26 17:23:00,82.0,62.0,-100.00,South,172,6.0,15.0,51,0.00,,,0.00,522.000000,,2013-05-26 22:23:00,
2013-05-26 17:33:00,82.0,62.0,-100.00,South,172,6.0,15.0,51,0.00,,,0.00,522.000000,,2013-05-26 22:33:00,
2013-05-26 17:42:00,82.0,62.0,-100.00,South,172,6.0,15.0,51,0.00,,,0.00,522.000000,,2013-05-26 22:42:00,
2013-05-26 17:51:00,80.0,61.0,-100.00,SSE,160,5.0,11.0,52,0.00,,,0.00,307.000000,,2013-05-26 22:51:00,
2013-05-26 18:12:00,80.0,61.0,-100.00,SSE,160,5.0,11.0,52,0.00,,,0.00,307.000000,,2013-05-26 23:12:00,
2013-05-26 18:22:00,80.0,61.0,-100.00,SSE,160,5.0,11.0,52,0.00,,,0.00,307.000000,,2013-05-26 23:22:00,
2013-05-26 18:32:00,80.0,61.0,-100.00,SSE,160,5.0,11.0,52,0.00,,,0.00,307.000000,,2013-05-26 23:32:00,
2013-05-26 18:43:00,80.0,61.0,-100.00,SSE,160,5.0,11.0,52,0.00,,,0.00,307.000000,,2013-05-26 23:43:00,
2013-05-26 18:51:00,79.0,65.0,-100.00,SE,142,3.0,9.0,62,0.00,,,0.00,138.000000,,2013-05-26 23:51:00,
2013-05-26 19:11:00,79.0,65.0,-100.00,SE,142,3.0,9.0,62,0.00,,,0.00,138.000000,,2013-05-27 00:11:00,
2013-05-26 19:22:00,79.0,65.0,-100.00,SE,142,3.0,9.0,62,0.00,,,0.00,138.000000,,2013-05-27 00:22:00,
2013-05-26 19:32:00,79.0,65.0,-100.00,SE,142,3.0,9.0,62,0.00,,,0.00,138.000000,,2013-05-27 00:32:00,
2013-05-26 19:42:00,79.0,65.0,-100.00,SE,142,3.0,9.0,62,0.00,,,0.00,138.000000,,2013-05-27 00:42:00,
2013-05-26 19:51:00,77.0,67.0,-100.00,SE,134,3.0,5.0,71,0.00,,,0.00,30.000000,,2013-05-27 00:51:00,
2013-05-26 20:11:00,77.0,67.0,-100.00,SE,134,3.0,5.0,71,0.00,,,0.00,30.000000,,2013-05-27 01:11:00,
2013-05-26 20:22:00,77.0,67.0,-100.00,SE,134,3.0,5.0,71,0.00,,,0.00,30.000000,,2013-05-27 01:22:00,
2013-05-26 20:32:00,77.0,67.0,-100.00,SE,134,3.0,5.0,71,0.00,,,0.00,30.000000,,2013-05-27 01:32:00,
2013-05-26 20:42:00,77.0,67.0,-100.00,SE,134,3.0,5.0,71,0.00,,,0.00,30.000000,,2013-05-27 01:42:00,
2013-05-26 20:51:00,75.0,70.0,-100.00,NW,323,0.0,4.0,85,0.00,,,0.00,1.000000,,2013-05-27 01:51:00,
2013-05-26 21:11:00,75.0,70.0,-100.00,NW,323,0.0,4.0,85,0.00,,,0.00,1.000000,,2013-05-27 02:11:00,
2013-05-26 21:22:00,75.0,70.0,-100.00,NW,323,0.0,4.0,85,0.00,,,0.00,1.000000,,2013-05-27 02:22:00,
2013-05-26 21:32:00,75.0,70.0,-100.00,NW,323,0.0,4.0,85,0.00,,,0.00,1.000000,,2013-05-27 02:32:00,
2013-05-26 21:42:00,75.0,70.0,-100.00,NW,323,0.0,4.0,85,0.00,,,0.00,1.000000,,2013-05-27 02:42:00,
2013-05-26 21:51:00,73.0,70.0,-100.00,NE,54,0.0,2.0,91,0.00,,,0.00,0.000000,,2013-05-27 02:51:00,
2013-05-26 22:11:00,73.0,70.0,-100.00,NE,54,0.0,2.0,91,0.00,,,0.00,0.000000,,2013-05-27 03:11:00,
2013-05-26 22:21:00,73.0,70.0,-100.00,NE,54,0.0,2.0,91,0.00,,,0.00,0.000000,,2013-05-27 03:21:00,
2013-05-26 22:33:00,73.0,70.0,-100.00,NE,54,0.0,2.0,91,0.00,,,0.00,0.000000,,2013-05-27 03:33:00,
2013-05-26 22:43:00,73.0,70.0,-100.00,NE,54,0.0,2.0,91,0.00,,,0.00,0.000000,,2013-05-27 03:43:00,
2013-05-26 22:51:00,73.0,71.0,-100.00,ENE,64,1.0,4.0,92,0.00,,,0.00,0.000000,,2013-05-27 03:51:00,
2013-05-26 23:12:00,73.0,71.0,-100.00,ENE,64,1.0,4.0,92,0.00,,,0.00,0.000000,,2013-05-27 04:12:00,
2013-05-26 23:23:00,73.0,71.0,-100.00,ENE,64,1.0,4.0,92,0.00,,,0.00,0.000000,,2013-05-27 04:23:00,
2013-05-26 23:33:00,73.0,71.0,-100.00,ENE,64,1.0,4.0,92,0.00,,,0.00,0.000000,,2013-05-27 04:33:00,
2013-05-26 23:43:00,73.0,71.0,-100.00,ENE,64,1.0,4.0,92,0.00,,,0.00,0.000000,,2013-05-27 04:43:00,
2013-05-26 23:51:00,73.0,71.0,-100.00,ESE,118,1.0,4.0,95,0.00,,,0.00,0.000000,,2013-05-27 04:51:00,